weather.gov     
National Weather Service

Regional Weather Roundup
NWS Homepage
This page is being discontinued on March 12, 2014.
The same data is available at this site. Please update your bookmarks.
Thank you, and we apologize for the inconvenience.
Please send an email to SR-SRH.Webmaster@noaa.gov with any concerns.


Current Version
Previous Version:    01  02  03  04  05  06  07  08  09  10  11  12  13  14  15  16  17  18  19  20  21  22  23  24  25  26  27  28  29  30  
   31  32  33  34  35  36  37  38  39  40  41  42  43  44  45  46  47  48  49  50  51  52  53  
[Printable]
790
ASUS41 KCTP 310510
RWRCTP

REGIONAL WEATHER ROUNDUP
NATIONAL WEATHER SERVICE STATE COLLEGE PA
100 AM EDT FRI OCT 31 2014

Note: "fair" indicates few or no clouds below 12,000 feet with no
significant weather and/or obstructions to visibility.

* = STATION THAT DOES NOT REPORT PRECIPITATION /E.G. RAIN...SNOW...ETC/
    THUNDER OR FOG.

PAZ002>004-007>009-013>016-020>023-029>032-310600-
WESTERN PENNSYLVANIA

CITY           SKY/WX    TMP DP  RH WIND       PRES   REMARKS
ERIE           MOCLDY    41  35  79 S7        30.02F
MEADVILLE      CLOUDY    40  36  86 CALM      30.01F
FRANKLIN*      CLOUDY    39  36  87 CALM      30.03F
NEW CASTLE       N/A     43  38  82 CALM      30.04F
BEAVER COUNTY  NOT AVBL
BUTLER*        CLOUDY    43  36  75 CALM      30.04F
PITTSBURGH INT CLOUDY    45  36  70 CALM      30.02F
PITTSBURGH     CLOUDY    46  34  62 W3        30.02F
INDIANA*       CLOUDY    43  41  93 CALM      30.06S
LATROBE        CLOUDY    45  41  87 S3        30.05S
WASHINGTON CO* CLOUDY    43  37  81 CALM      30.04F
$$

PAZ004>006-010>012-017>019-024>028-033>037-041-042-045-046-049>053-310600-
CENTRAL PENNSYLVANIA

CITY           SKY/WX    TMP DP  RH WIND       PRES   REMARKS
BRADFORD       CLOUDY    37  34  89 CALM      30.00S
DUBOIS         CLOUDY    41  38  89 CALM      30.00F
CLEARFIELD     CLOUDY    42  36  79 CALM      30.02F
JOHNSTOWN      CLOUDY    40  36  86 CALM      30.00F
ALTOONA          N/A     43  39  86 SW3       30.02F
STATE COLLEGE  CLOUDY    39  34  82 CALM      30.02S
WILLIAMSPORT   CLEAR     36  30  79 CALM      30.03S
SELINSGROVE    PTCLDY    42  39  89 CALM      30.04R
FT INDIANTOWN  CLOUDY    45  38  77 CALM      30.04R
CAPITAL CITY   CLOUDY    47  40  76 CALM      30.03S
HARRISBURG     CLOUDY    48  39  71 CALM      30.03S
YORK           CLOUDY    45  41  86 CALM      30.02F
$$

PAZ038>040-043-044-047-048-054-055-060>062-067>071-310600-
EASTERN PENNSYLVANIA

CITY           SKY/WX    TMP DP  RH WIND       PRES   REMARKS
SCRANTON       CLEAR     38  31  76 E6        30.01F
MOUNT POCONO   CLEAR     27  24  89 CALM      29.99S
ALLENTOWN      CLEAR     33  30  88 SW3       30.04S
QUAKERTOWN*    CLEAR     32  32 100 CALM      30.04S
READING        CLEAR     39  34  82 CALM      30.03S
LANCASTER      CLOUDY    44  39  82 CALM      30.03F
COATESVILLE    MOCLDY    41  36  81 CALM      30.03S
POTTSTOWN      CLEAR     35  32  88 CALM      30.05S
BLUE BELL      CLEAR     36  34  93 CALM      30.03S
DOYLESTOWN     CLEAR     35  33  92 CALM      30.03S
WILLOW GROVE   NOT AVBL
NORTH PHILA    CLEAR     39  32  76 CALM      30.05S
PHILADELPHIA   CLEAR     46  34  62 NW6       30.04S
$$




U.S. Dept. of Commerce
NOAA National Weather Service
1325 East West Highway
Silver Spring, MD 20910
E-mail: w-nws.webmaster@noaa.gov
Page last modified: May 16, 2007
NATIONAL WEATHER SERVICE: for Safety, for Work, for Fun - FOR LIFE